Location: Eitze
(52.9840°N, 9.6894°E)
Time: 14:53:20
(UTC+00:00)

ARIANE 6 FM1 Upper Stage - Visible Passes

Search period start: 20 January 2026 00:00
Search period end: 30 January 2026 00:00
Orbit: 522 x 610 km, 62.0° (Epoch: 20 January)

Date Brightness Start Highest point End Pass type
(mag) Time Alt. Az. Time Alt. Az. Time Alt. Az.
21 Jan 5.0 17:37:42 10° SE 17:37:44 10° SE 17:37:44 10° SE visible
21 Jan 5.5 19:13:42 10° SW 19:13:48 11° SW 19:13:48 11° SW visible
22 Jan 4.4 17:36:41 10° SSE 17:38:37 16° SE 17:38:37 16° SE visible
22 Jan 5.2 19:13:49 10° SW 19:14:40 16° SW 19:14:40 16° SW visible
23 Jan 3.9 17:36:07 10° S 17:39:21 23° ESE 17:39:23 23° ESE visible
23 Jan 4.9 19:14:01 10° WSW 19:15:26 21° WSW 19:15:26 21° WSW visible
24 Jan 3.4 17:35:46 10° S 17:39:21 31° SE 17:40:04 29° ESE visible
24 Jan 4.7 19:14:16 10° WSW 19:16:07 25° W 19:16:07 25° W visible
25 Jan 3.0 17:35:34 10° SSW 17:39:24 42° SE 17:40:40 32° E visible
25 Jan 4.6 19:14:35 10° WSW 19:16:42 27° W 19:16:42 27° W visible
26 Jan 2.7 17:35:30 10° SSW 17:39:28 58° SE 17:41:10 31° ENE visible
26 Jan 4.6 19:14:56 10° W 19:17:12 26° WNW 19:17:12 26° WNW visible
27 Jan 2.5 17:35:31 10° SW 17:39:34 78° SE 17:41:36 28° NE visible
27 Jan 4.6 19:15:19 10° W 19:17:38 25° WNW 19:17:38 25° WNW visible
28 Jan 2.6 17:35:37 10° SW 17:39:40 80° NW 17:41:58 24° NE visible
28 Jan 4.7 19:15:42 10° WNW 19:17:59 23° NW 19:17:59 23° NW visible
29 Jan 2.9 17:35:47 10° WSW 17:39:48 62° NW 17:42:16 22° NE visible
29 Jan 4.8 19:16:05 10° WNW 19:18:18 22° NW 19:18:18 22° NW visible
